Location: Cahoon Acres
(40.8736°N, 111.8994°W)
Time: 10:09:18
(UTC+00:00)

SR - Pass Details

Date: 10 June 2020
Orbit: 583 x 872 km, 66.7° (Epoch: 03 July)

Event Time Altitude Azimuth Distance (km) Brightness Sun altitude
Rises 04:04:14 0° 340° (NNW) 2,868 ? -10.6°
Reaches altitude 10° 04:06:51 10° 354° (N) 1,935 ? -11.0°
Maximum altitude 04:10:27 25° 50° (NE) 1,196 ? -11.5°
Enters shadow 04:13:25 13° 102° (ESE) 1,727 ? -11.9°
Drops below altitude 10° 04:13:58 10° 107° (ESE) 1,900 - -11.9°
Sets 04:16:30 0° 121° (ESE) 2,805 - -12.3°
